owner,sensor,date,latitude,longitude,vertical_datum,sea_water_practical_salinity,qcFlag 
DISL,ioos:station:DISL:KATA:1,2016-10-01T00:00:00Z,30.2583,-88.2131,4.085,26.31,1111122 
DISL,ioos:station:DISL:KATA:1,2016-10-01T00:30:00Z,30.2583,-88.2131,4.106,26.32,1111122 
DISL,ioos:station:DISL:KATA:1,2016-10-01T01:00:00Z,30.2583,-88.2131,4.131,26.32,1111122 
DISL,ioos:station:DISL:KATA:1,2016-10-01T01:30:00Z,30.2583,-88.2131,4.153,26.33,1111122 
DISL,ioos:station:DISL:KATA:1,2016-10-01T02:00:00Z,30.2583,-88.2131,4.163,26.3,1111122 
DISL,ioos:station:DISL:KATA:1,2016-10-01T02:30:00Z,30.2583,-88.2131,4.18,26.21,1111122 
DISL,ioos:station:DISL:KATA:1,2016-10-01T03:00:00Z,30.2583,-88.2131,4.17,26.16,1111122 
DISL,ioos:station:DISL:KATA:1,2016-10-01T03:30:00Z,30.2583,-88.2131,4.168,26.14,1111122 
DISL,ioos:station:DISL:KATA:1,2016-10-01T04:00:00Z,30.2583,-88.2131,4.165,26.16,1111122 
DISL,ioos:station:DISL:KATA:1,2016-10-01T04:30:00Z,30.2583,-88.2131,4.136,26.18,1111122 
DISL,ioos:station:DISL:KATA:1,2016-10-01T05:00:00Z,30.2583,-88.2131,4.126,26.19,1111122 
DISL,ioos:station:DISL:KATA:1,2016-10-01T05:30:00Z,30.2583,-88.2131,4.11,26.19,1111122 
DISL,ioos:station:DISL:KATA:1,2016-10-01T06:00:00Z,30.2583,-88.2131,4.089,26.19,1111122 
DISL,ioos:station:DISL:KATA:1,2016-10-01T06:30:00Z,30.2583,-88.2131,4.09,26.18,1111122 
DISL,ioos:station:DISL:KATA:1,2016-10-01T07:00:00Z,30.2583,-88.2131,4.082,26.19,1111122 
DISL,ioos:station:DISL:KATA:1,2016-10-01T07:30:00Z,30.2583,-88.2131,4.067,26.18,1111122 
DISL,ioos:station:DISL:KATA:1,2016-10-01T08:00:00Z,30.2583,-88.2131,4.051,25.89,1111122 
DISL,ioos:station:DISL:KATA:1,2016-10-01T08:30:00Z,30.2583,-88.2131,4.029,26.08,1111122 
DISL,ioos:station:DISL:KATA:1,2016-10-01T09:00:00Z,30.2583,-88.2131,3.999,26.06,1111122 
DISL,ioos:station:DISL:KATA:1,2016-10-01T09:30:00Z,30.2583,-88.2131,3.965,26.16,1111122 
DISL,ioos:station:DISL:KATA:1,2016-10-01T10:00:00Z,30.2583,-88.2131,3.94,26.32,1111122 
DISL,ioos:station:DISL:KATA:1,2016-10-01T10:30:00Z,30.2583,-88.2131,3.919,26.21,1111122 
DISL,ioos:station:DISL:KATA:1,2016-10-01T11:00:00Z,30.2583,-88.2131,3.907,25.33,1111122 
DISL,ioos:station:DISL:KATA:1,2016-10-01T11:30:00Z,30.2583,-88.2131,3.905,26.09,1111122 
DISL,ioos:station:DISL:KATA:1,2016-10-01T12:00:00Z,30.2583,-88.2131,3.925,25.2,1111122 
DISL,ioos:station:DISL:KATA:1,2016-10-01T12:30:00Z,30.2583,-88.2131,3.953,26.21,1111122 
DISL,ioos:station:DISL:KATA:1,2016-10-01T13:00:00Z,30.2583,-88.2131,3.993,26.22,1111122 
DISL,ioos:station:DISL:KATA:1,2016-10-01T13:30:00Z,30.2583,-88.2131,4.034,26.19,1111122 
DISL,ioos:station:DISL:KATA:1,2016-10-01T14:00:00Z,30.2583,-88.2131,4.053,26.22,1111122 
DISL,ioos:station:DISL:KATA:1,2016-10-01T14:30:00Z,30.2583,-88.2131,4.051,26.24,1111122 
DISL,ioos:station:DISL:KATA:1,2016-10-01T15:00:00Z,30.2583,-88.2131,4.044,26.27,1111122 
DISL,ioos:station:DISL:KATA:1,2016-10-01T15:30:00Z,30.2583,-88.2131,4.022,26.33,1111122 
DISL,ioos:station:DISL:KATA:1,2016-10-01T16:00:00Z,30.2583,-88.2131,4.003,26.38,1111122 
DISL,ioos:station:DISL:KATA:1,2016-10-01T16:30:00Z,30.2583,-88.2131,3.993,26.38,1111122 
DISL,ioos:station:DISL:KATA:1,2016-10-01T17:00:00Z,30.2583,-88.2131,3.999,26.39,1111122 
DISL,ioos:station:DISL:KATA:1,2016-10-01T17:30:00Z,30.2583,-88.2131,4.02,26.39,1111122 
DISL,ioos:station:DISL:KATA:1,2016-10-01T18:00:00Z,30.2583,-88.2131,4.06,26.42,1111122 
DISL,ioos:station:DISL:KATA:1,2016-10-01T18:30:00Z,30.2583,-88.2131,4.088,26.42,1111122 
DISL,ioos:station:DISL:KATA:1,2016-10-01T19:00:00Z,30.2583,-88.2131,4.101,26.36,1111122 
DISL,ioos:station:DISL:KATA:1,2016-10-01T19:30:00Z,30.2583,-88.2131,4.096,26.37,1111122 
DISL,ioos:station:DISL:KATA:1,2016-10-01T20:00:00Z,30.2583,-88.2131,4.083,26.38,1111122 
DISL,ioos:station:DISL:KATA:1,2016-10-01T20:30:00Z,30.2583,-88.2131,4.056,26.36,1111122 
DISL,ioos:station:DISL:KATA:1,2016-10-01T21:00:00Z,30.2583,-88.2131,4.034,26.4,1111122 
DISL,ioos:station:DISL:KATA:1,2016-10-01T21:30:00Z,30.2583,-88.2131,4.028,26.41,1111122 
DISL,ioos:station:DISL:KATA:1,2016-10-01T22:00:00Z,30.2583,-88.2131,4.017,26.47,1111122 
DISL,ioos:station:DISL:KATA:1,2016-10-01T22:30:00Z,30.2583,-88.2131,4.024,26.5,1111122 
DISL,ioos:station:DISL:KATA:1,2016-10-01T23:00:00Z,30.2583,-88.2131,4.039,26.54,1111122 
DISL,ioos:station:DISL:KATA:1,2016-10-01T23:30:00Z,30.2583,-88.2131,4.047,26.54,1111122 
DISL,ioos:station:DISL:KATA:1,2016-10-02T00:00:00Z,30.2583,-88.2131,4.075,26.54,1111122 
DISL,ioos:station:DISL:KATA:1,2016-10-02T00:30:00Z,30.2583,-88.2131,4.105,26.54,1111122 
DISL,ioos:station:DISL:KATA:1,2016-10-02T01:00:00Z,30.2583,-88.2131,4.122,26.5,1111122 
DISL,ioos:station:DISL:KATA:1,2016-10-02T01:30:00Z,30.2583,-88.2131,4.143,26.55,1111122 
DISL,ioos:station:DISL:KATA:1,2016-10-02T02:00:00Z,30.2583,-88.2131,4.163,26.56,1111122 
DISL,ioos:station:DISL:KATA:1,2016-10-02T02:30:00Z,30.2583,-88.2131,4.176,26.54,1111122 
DISL,ioos:station:DISL:KATA:1,2016-10-02T03:00:00Z,30.2583,-88.2131,4.171,26.52,1111122 
DISL,ioos:station:DISL:KATA:1,2016-10-02T03:30:00Z,30.2583,-88.2131,4.176,26.55,1111122 
DISL,ioos:station:DISL:KATA:1,2016-10-02T04:00:00Z,30.2583,-88.2131,4.164,26.57,1111122 
DISL,ioos:station:DISL:KATA:1,2016-10-02T04:30:00Z,30.2583,-88.2131,4.153,26.6,1111122 
DISL,ioos:station:DISL:KATA:1,2016-10-02T05:00:00Z,30.2583,-88.2131,4.141,26.63,1111122 
DISL,ioos:station:DISL:KATA:1,2016-10-02T05:30:00Z,30.2583,-88.2131,4.126,26.65,1111122 
DISL,ioos:station:DISL:KATA:1,2016-10-02T06:00:00Z,30.2583,-88.2131,4.119,26.67,1111122 
DISL,ioos:station:DISL:KATA:1,2016-10-02T06:30:00Z,30.2583,-88.2131,4.106,26.67,1111122 
DISL,ioos:station:DISL:KATA:1,2016-10-02T07:00:00Z,30.2583,-88.2131,4.101,26.68,1111122 
DISL,ioos:station:DISL:KATA:1,2016-10-02T07:30:00Z,30.2583,-88.2131,4.084,26.65,1111122 
DISL,ioos:station:DISL:KATA:1,2016-10-02T08:00:00Z,30.2583,-88.2131,4.067,26.61,1111122 
DISL,ioos:station:DISL:KATA:1,2016-10-02T08:30:00Z,30.2583,-88.2131,4.048,26.56,1111122 
DISL,ioos:station:DISL:KATA:1,2016-10-02T09:00:00Z,30.2583,-88.2131,4.025,26.53,1111122 
DISL,ioos:station:DISL:KATA:1,2016-10-02T09:30:00Z,30.2583,-88.2131,3.987,26.5,1111122 
DISL,ioos:station:DISL:KATA:1,2016-10-02T10:00:00Z,30.2583,-88.2131,3.95,26.45,1111122 
DISL,ioos:station:DISL:KATA:1,2016-10-02T10:30:00Z,30.2583,-88.2131,3.917,26.38,1111122 
DISL,ioos:station:DISL:KATA:1,2016-10-02T11:00:00Z,30.2583,-88.2131,3.888,26.34,1111122 
DISL,ioos:station:DISL:KATA:1,2016-10-02T11:30:00Z,30.2583,-88.2131,3.871,26.34,1111122 
DISL,ioos:station:DISL:KATA:1,2016-10-02T12:00:00Z,30.2583,-88.2131,3.876,26.32,1111122 
DISL,ioos:station:DISL:KATA:1,2016-10-02T12:30:00Z,30.2583,-88.2131,3.898,26.3,1111122 
DISL,ioos:station:DISL:KATA:1,2016-10-02T13:00:00Z,30.2583,-88.2131,3.936,26.3,1111122 
DISL,ioos:station:DISL:KATA:1,2016-10-02T13:30:00Z,30.2583,-88.2131,3.971,26.29,1111122 
DISL,ioos:station:DISL:KATA:1,2016-10-02T14:00:00Z,30.2583,-88.2131,3.998,26.29,1111122 
DISL,ioos:station:DISL:KATA:1,2016-10-02T14:30:00Z,30.2583,-88.2131,4.002,26.29,1111122 
DISL,ioos:station:DISL:KATA:1,2016-10-02T15:00:00Z,30.2583,-88.2131,4.008,26.29,1111122 
DISL,ioos:station:DISL:KATA:1,2016-10-02T15:30:00Z,30.2583,-88.2131,3.998,26.29,1111122 
DISL,ioos:station:DISL:KATA:1,2016-10-02T16:00:00Z,30.2583,-88.2131,3.998,26.27,1111122 
DISL,ioos:station:DISL:KATA:1,2016-10-02T16:30:00Z,30.2583,-88.2131,4.008,26.32,1111122 
DISL,ioos:station:DISL:KATA:1,2016-10-02T17:00:00Z,30.2583,-88.2131,4.012,26.31,1111122 
DISL,ioos:station:DISL:KATA:1,2016-10-02T17:30:00Z,30.2583,-88.2131,4.004,26.32,1111122 
DISL,ioos:station:DISL:KATA:1,2016-10-02T18:00:00Z,30.2583,-88.2131,4.036,26.21,1111122 
DISL,ioos:station:DISL:KATA:1,2016-10-02T18:30:00Z,30.2583,-88.2131,4.054,26.37,1111122 
DISL,ioos:station:DISL:KATA:1,2016-10-02T19:00:00Z,30.2583,-88.2131,4.076,26.31,1111122 
DISL,ioos:station:DISL:KATA:1,2016-10-02T19:30:00Z,30.2583,-88.2131,4.091,26.38,1111122 
DISL,ioos:station:DISL:KATA:1,2016-10-02T20:00:00Z,30.2583,-88.2131,4.099,26.48,1111122 
DISL,ioos:station:DISL:KATA:1,2016-10-02T20:30:00Z,30.2583,-88.2131,4.098,26.49,1111122 
DISL,ioos:station:DISL:KATA:1,2016-10-02T21:00:00Z,30.2583,-88.2131,4.086,26.54,1111122 
DISL,ioos:station:DISL:KATA:1,2016-10-02T21:30:00Z,30.2583,-88.2131,4.084,26.55,1111122 
DISL,ioos:station:DISL:KATA:1,2016-10-02T22:00:00Z,30.2583,-88.2131,4.068,26.56,1111122 
DISL,ioos:station:DISL:KATA:1,2016-10-02T22:30:00Z,30.2583,-88.2131,4.056,26.61,1111122 
DISL,ioos:station:DISL:KATA:1,2016-10-02T23:00:00Z,30.2583,-88.2131,4.052,26.65,1111122 
DISL,ioos:station:DISL:KATA:1,2016-10-02T23:30:00Z,30.2583,-88.2131,4.061,26.6,1111122 
DISL,ioos:station:DISL:KATA:1,2016-10-03T00:00:00Z,30.2583,-88.2131,4.074,26.61,1111122 
DISL,ioos:station:DISL:KATA:1,2016-10-03T00:30:00Z,30.2583,-88.2131,4.102,26.63,1111122 
DISL,ioos:station:DISL:KATA:1,2016-10-03T01:00:00Z,30.2583,-88.2131,4.125,26.62,1111122 
DISL,ioos:station:DISL:KATA:1,2016-10-03T01:30:00Z,30.2583,-88.2131,4.161,26.69,1111122 
DISL,ioos:station:DISL:KATA:1,2016-10-03T02:00:00Z,30.2583,-88.2131,4.166,26.67,1111122 
DISL,ioos:station:DISL:KATA:1,2016-10-03T02:30:00Z,30.2583,-88.2131,4.178,26.64,1111122 
DISL,ioos:station:DISL:KATA:1,2016-10-03T03:00:00Z,30.2583,-88.2131,4.196,26.67,1111122 
DISL,ioos:station:DISL:KATA:1,2016-10-03T03:30:00Z,30.2583,-88.2131,4.204,26.68,1111122 
DISL,ioos:station:DISL:KATA:1,2016-10-03T04:00:00Z,30.2583,-88.2131,4.205,26.68,1111122 
DISL,ioos:station:DISL:KATA:1,2016-10-03T04:30:00Z,30.2583,-88.2131,4.203,26.71,1111122 
DISL,ioos:station:DISL:KATA:1,2016-10-03T05:00:00Z,30.2583,-88.2131,4.183,26.73,1111122 
DISL,ioos:station:DISL:KATA:1,2016-10-03T05:30:00Z,30.2583,-88.2131,4.171,26.77,1111122 
DISL,ioos:station:DISL:KATA:1,2016-10-03T06:00:00Z,30.2583,-88.2131,4.151,26.77,1111122 
DISL,ioos:station:DISL:KATA:1,2016-10-03T06:30:00Z,30.2583,-88.2131,4.125,26.79,1111122 
DISL,ioos:station:DISL:KATA:1,2016-10-03T07:00:00Z,30.2583,-88.2131,4.128,26.81,1111122 
DISL,ioos:station:DISL:KATA:1,2016-10-03T07:30:00Z,30.2583,-88.2131,4.119,26.78,1111122 
DISL,ioos:station:DISL:KATA:1,2016-10-03T08:00:00Z,30.2583,-88.2131,4.102,26.77,1111122 
DISL,ioos:station:DISL:KATA:1,2016-10-03T08:30:00Z,30.2583,-88.2131,4.098,26.65,1111122 
DISL,ioos:station:DISL:KATA:1,2016-10-03T09:00:00Z,30.2583,-88.2131,4.091,26.61,1111122 
DISL,ioos:station:DISL:KATA:1,2016-10-03T09:30:00Z,30.2583,-88.2131,4.054,26.64,1111122 
DISL,ioos:station:DISL:KATA:1,2016-10-03T10:00:00Z,30.2583,-88.2131,4.031,26.58,1111122 
DISL,ioos:station:DISL:KATA:1,2016-10-03T10:30:00Z,30.2583,-88.2131,3.991,26.59,1111122 
DISL,ioos:station:DISL:KATA:1,2016-10-03T11:00:00Z,30.2583,-88.2131,3.955,26.51,1111122 
DISL,ioos:station:DISL:KATA:1,2016-10-03T11:30:00Z,30.2583,-88.2131,3.929,26.47,1111122 
DISL,ioos:station:DISL:KATA:1,2016-10-03T12:00:00Z,30.2583,-88.2131,3.908,26.35,1111122 
DISL,ioos:station:DISL:KATA:1,2016-10-03T12:30:00Z,30.2583,-88.2131,3.91,26.34,1111122 
DISL,ioos:station:DISL:KATA:1,2016-10-03T13:00:00Z,30.2583,-88.2131,3.897,26.36,1111122 
DISL,ioos:station:DISL:KATA:1,2016-10-03T13:30:00Z,30.2583,-88.2131,3.916,26.31,1111122 
DISL,ioos:station:DISL:KATA:1,2016-10-03T14:00:00Z,30.2583,-88.2131,3.928,26.2,1111122 
DISL,ioos:station:DISL:KATA:1,2016-10-03T14:30:00Z,30.2583,-88.2131,3.942,26.21,1111122 
DISL,ioos:station:DISL:KATA:1,2016-10-03T15:00:00Z,30.2583,-88.2131,3.968,26.2,1111122 
DISL,ioos:station:DISL:KATA:1,2016-10-03T15:30:00Z,30.2583,-88.2131,3.981,26.23,1111122 
DISL,ioos:station:DISL:KATA:1,2016-10-03T16:00:00Z,30.2583,-88.2131,4.003,26.23,1111122 
DISL,ioos:station:DISL:KATA:1,2016-10-03T16:30:00Z,30.2583,-88.2131,4.012,26.13,1111122 
DISL,ioos:station:DISL:KATA:1,2016-10-03T17:00:00Z,30.2583,-88.2131,4.02,26.2,1111122 
DISL,ioos:station:DISL:KATA:1,2016-10-03T17:30:00Z,30.2583,-88.2131,4.03,26.22,1111122 
DISL,ioos:station:DISL:KATA:1,2016-10-03T18:00:00Z,30.2583,-88.2131,4.038,26.18,1111122 
DISL,ioos:station:DISL:KATA:1,2016-10-03T18:30:00Z,30.2583,-88.2131,4.041,26.29,1111122 
DISL,ioos:station:DISL:KATA:1,2016-10-03T19:00:00Z,30.2583,-88.2131,4.048,26.32,1111122 
DISL,ioos:station:DISL:KATA:1,2016-10-03T19:30:00Z,30.2583,-88.2131,4.071,26.35,1111122 
DISL,ioos:station:DISL:KATA:1,2016-10-03T20:00:00Z,30.2583,-88.2131,4.101,26.43,1111122 
DISL,ioos:station:DISL:KATA:1,2016-10-03T20:30:00Z,30.2583,-88.2131,4.133,26.48,1111122 
DISL,ioos:station:DISL:KATA:1,2016-10-03T21:00:00Z,30.2583,-88.2131,4.154,26.57,1111122 
DISL,ioos:station:DISL:KATA:1,2016-10-03T21:30:00Z,30.2583,-88.2131,4.157,26.53,1111122 
DISL,ioos:station:DISL:KATA:1,2016-10-03T22:00:00Z,30.2583,-88.2131,4.158,26.53,1111122 
DISL,ioos:station:DISL:KATA:1,2016-10-03T22:30:00Z,30.2583,-88.2131,4.154,26.58,1111122 
DISL,ioos:station:DISL:KATA:1,2016-10-03T23:00:00Z,30.2583,-88.2131,4.153,26.39,1111122 
DISL,ioos:station:DISL:KATA:1,2016-10-03T23:30:00Z,30.2583,-88.2131,4.151,26.6,1111122 
DISL,ioos:station:DISL:KATA:1,2016-10-04T00:00:00Z,30.2583,-88.2131,4.167,26.66,1111122 
DISL,ioos:station:DISL:KATA:1,2016-10-04T00:30:00Z,30.2583,-88.2131,4.187,26.66,1111122 
DISL,ioos:station:DISL:KATA:1,2016-10-04T01:00:00Z,30.2583,-88.2131,4.213,26.7,1111122 
DISL,ioos:station:DISL:KATA:1,2016-10-04T01:30:00Z,30.2583,-88.2131,4.243,26.72,1111122 
DISL,ioos:station:DISL:KATA:1,2016-10-04T02:00:00Z,30.2583,-88.2131,4.26,26.76,1111122 
DISL,ioos:station:DISL:KATA:1,2016-10-04T02:30:00Z,30.2583,-88.2131,4.286,26.75,1111122 
DISL,ioos:station:DISL:KATA:1,2016-10-04T03:00:00Z,30.2583,-88.2131,4.304,26.79,1111122 
DISL,ioos:station:DISL:KATA:1,2016-10-04T03:30:00Z,30.2583,-88.2131,4.314,26.82,1111122 
DISL,ioos:station:DISL:KATA:1,2016-10-04T04:00:00Z,30.2583,-88.2131,4.333,26.84,1111122 
DISL,ioos:station:DISL:KATA:1,2016-10-04T04:30:00Z,30.2583,-88.2131,4.34,26.86,1111122 
DISL,ioos:station:DISL:KATA:1,2016-10-04T05:00:00Z,30.2583,-88.2131,4.33,26.85,1111122 
DISL,ioos:station:DISL:KATA:1,2016-10-04T05:30:00Z,30.2583,-88.2131,4.314,26.92,1111122 
DISL,ioos:station:DISL:KATA:1,2016-10-04T06:00:00Z,30.2583,-88.2131,4.291,26.91,1111122 
DISL,ioos:station:DISL:KATA:1,2016-10-04T06:30:00Z,30.2583,-88.2131,4.265,26.94,1111122 
DISL,ioos:station:DISL:KATA:1,2016-10-04T07:00:00Z,30.2583,-88.2131,4.237,26.88,1111122 
DISL,ioos:station:DISL:KATA:1,2016-10-04T07:30:00Z,30.2583,-88.2131,4.22,26.88,1111122 
DISL,ioos:station:DISL:KATA:1,2016-10-04T08:00:00Z,30.2583,-88.2131,4.197,26.88,1111122 
DISL,ioos:station:DISL:KATA:1,2016-10-04T08:30:00Z,30.2583,-88.2131,4.172,26.93,1111122 
DISL,ioos:station:DISL:KATA:1,2016-10-04T09:00:00Z,30.2583,-88.2131,4.145,26.89,1111122 
DISL,ioos:station:DISL:KATA:1,2016-10-04T09:30:00Z,30.2583,-88.2131,4.122,26.79,1111122 
DISL,ioos:station:DISL:KATA:1,2016-10-04T10:00:00Z,30.2583,-88.2131,4.091,26.6,1111122 
DISL,ioos:station:DISL:KATA:1,2016-10-04T10:30:00Z,30.2583,-88.2131,4.061,26.55,1111122 
DISL,ioos:station:DISL:KATA:1,2016-10-04T11:00:00Z,30.2583,-88.2131,4.027,26.66,1111122 
DISL,ioos:station:DISL:KATA:1,2016-10-04T11:30:00Z,30.2583,-88.2131,3.988,26.64,1111122 
DISL,ioos:station:DISL:KATA:1,2016-10-04T12:00:00Z,30.2583,-88.2131,3.961,26.11,1111122 
DISL,ioos:station:DISL:KATA:1,2016-10-04T12:30:00Z,30.2583,-88.2131,3.935,26.34,1111122 
DISL,ioos:station:DISL:KATA:1,2016-10-04T13:00:00Z,30.2583,-88.2131,3.925,26.24,1111122 
DISL,ioos:station:DISL:KATA:1,2016-10-04T13:30:00Z,30.2583,-88.2131,3.926,26.16,1111122 
DISL,ioos:station:DISL:KATA:1,2016-10-04T14:00:00Z,30.2583,-88.2131,3.938,26.19,1111122 
DISL,ioos:station:DISL:KATA:1,2016-10-04T14:30:00Z,30.2583,-88.2131,3.943,25.9,1111122 
DISL,ioos:station:DISL:KATA:1,2016-10-04T15:00:00Z,30.2583,-88.2131,3.964,25.81,1111122 
DISL,ioos:station:DISL:KATA:1,2016-10-04T15:30:00Z,30.2583,-88.2131,3.985,25.89,1111122 
DISL,ioos:station:DISL:KATA:1,2016-10-04T16:00:00Z,30.2583,-88.2131,3.989,26.07,1111122 
DISL,ioos:station:DISL:KATA:1,2016-10-04T16:30:00Z,30.2583,-88.2131,3.99,25.96,1111122 
DISL,ioos:station:DISL:KATA:1,2016-10-04T17:00:00Z,30.2583,-88.2131,3.998,25.77,1111122 
DISL,ioos:station:DISL:KATA:1,2016-10-04T17:30:00Z,30.2583,-88.2131,4.012,25.68,1111122 
DISL,ioos:station:DISL:KATA:1,2016-10-04T18:00:00Z,30.2583,-88.2131,4.025,25.55,1111122 
DISL,ioos:station:DISL:KATA:1,2016-10-04T18:30:00Z,30.2583,-88.2131,4.046,25.61,1111122 
DISL,ioos:station:DISL:KATA:1,2016-10-04T19:00:00Z,30.2583,-88.2131,4.061,25.75,1111122 
DISL,ioos:station:DISL:KATA:1,2016-10-04T19:30:00Z,30.2583,-88.2131,4.072,25.76,1111122 
DISL,ioos:station:DISL:KATA:1,2016-10-04T20:00:00Z,30.2583,-88.2131,4.083,25.88,1111122 
DISL,ioos:station:DISL:KATA:1,2016-10-04T20:30:00Z,30.2583,-88.2131,4.082,25.93,1111122 
DISL,ioos:station:DISL:KATA:1,2016-10-04T21:00:00Z,30.2583,-88.2131,4.103,25.92,1111122 
DISL,ioos:station:DISL:KATA:1,2016-10-04T21:30:00Z,30.2583,-88.2131,4.123,25.97,1111122 
DISL,ioos:station:DISL:KATA:1,2016-10-04T22:00:00Z,30.2583,-88.2131,4.155,25.88,1111122 
DISL,ioos:station:DISL:KATA:1,2016-10-04T22:30:00Z,30.2583,-88.2131,4.182,25.81,1111122 
DISL,ioos:station:DISL:KATA:1,2016-10-04T23:00:00Z,30.2583,-88.2131,4.208,25.86,1111122 
DISL,ioos:station:DISL:KATA:1,2016-10-04T23:30:00Z,30.2583,-88.2131,4.224,25.73,1111122 
DISL,ioos:station:DISL:KATA:1,2016-10-05T00:00:00Z,30.2583,-88.2131,4.25,25.98,1111122 
DISL,ioos:station:DISL:KATA:1,2016-10-05T00:30:00Z,30.2583,-88.2131,4.263,26.28,1111122 
DISL,ioos:station:DISL:KATA:1,2016-10-05T01:00:00Z,30.2583,-88.2131,4.281,26.37,1111122 
DISL,ioos:station:DISL:KATA:1,2016-10-05T01:30:00Z,30.2583,-88.2131,4.296,26.33,1111122 
DISL,ioos:station:DISL:KATA:1,2016-10-05T02:00:00Z,30.2583,-88.2131,4.308,26.14,1111122 
DISL,ioos:station:DISL:KATA:1,2016-10-05T02:30:00Z,30.2583,-88.2131,4.323,26.25,1111122 
DISL,ioos:station:DISL:KATA:1,2016-10-05T03:00:00Z,30.2583,-88.2131,4.348,26.49,1111122 
DISL,ioos:station:DISL:KATA:1,2016-10-05T03:30:00Z,30.2583,-88.2131,4.362,26.63,1111122 
DISL,ioos:station:DISL:KATA:1,2016-10-05T04:00:00Z,30.2583,-88.2131,4.379,26.6,1111122 
DISL,ioos:station:DISL:KATA:1,2016-10-05T04:30:00Z,30.2583,-88.2131,4.389,26.7,1111122 
DISL,ioos:station:DISL:KATA:1,2016-10-05T05:00:00Z,30.2583,-88.2131,4.401,25.55,1111122 
DISL,ioos:station:DISL:KATA:1,2016-10-05T05:30:00Z,30.2583,-88.2131,4.382,26.24,1111122 
DISL,ioos:station:DISL:KATA:1,2016-10-05T06:00:00Z,30.2583,-88.2131,4.366,26.77,1111122 
DISL,ioos:station:DISL:KATA:1,2016-10-05T06:30:00Z,30.2583,-88.2131,4.336,26.77,1111122 
DISL,ioos:station:DISL:KATA:1,2016-10-05T07:00:00Z,30.2583,-88.2131,4.315,26.78,1111122 
DISL,ioos:station:DISL:KATA:1,2016-10-05T07:30:00Z,30.2583,-88.2131,4.288,26.97,1111122 
DISL,ioos:station:DISL:KATA:1,2016-10-05T08:00:00Z,30.2583,-88.2131,4.265,26.79,1111122 
DISL,ioos:station:DISL:KATA:1,2016-10-05T08:30:00Z,30.2583,-88.2131,4.245,26.55,1111122 
DISL,ioos:station:DISL:KATA:1,2016-10-05T09:00:00Z,30.2583,-88.2131,4.237,26.46,1111122 
DISL,ioos:station:DISL:KATA:1,2016-10-05T09:30:00Z,30.2583,-88.2131,4.205,26.45,1111122 
DISL,ioos:station:DISL:KATA:1,2016-10-05T10:00:00Z,30.2583,-88.2131,4.167,26.22,1111122 
DISL,ioos:station:DISL:KATA:1,2016-10-05T10:30:00Z,30.2583,-88.2131,4.127,26.09,1111122 
DISL,ioos:station:DISL:KATA:1,2016-10-05T11:00:00Z,30.2583,-88.2131,4.097,26.33,1111122 
DISL,ioos:station:DISL:KATA:1,2016-10-05T11:30:00Z,30.2583,-88.2131,4.057,26.06,1111122 
DISL,ioos:station:DISL:KATA:1,2016-10-05T12:00:00Z,30.2583,-88.2131,4.031,26.2,1111122 
DISL,ioos:station:DISL:KATA:1,2016-10-05T12:30:00Z,30.2583,-88.2131,3.997,25.52,1111122 
DISL,ioos:station:DISL:KATA:1,2016-10-05T13:00:00Z,30.2583,-88.2131,3.981,25.51,1111122 
DISL,ioos:station:DISL:KATA:1,2016-10-05T13:30:00Z,30.2583,-88.2131,3.963,25.24,1111122 
DISL,ioos:station:DISL:KATA:1,2016-10-05T14:00:00Z,30.2583,-88.2131,3.952,24.99,1111122 
DISL,ioos:station:DISL:KATA:1,2016-10-05T14:30:00Z,30.2583,-88.2131,3.946,24.25,1111122 
DISL,ioos:station:DISL:KATA:1,2016-10-05T15:00:00Z,30.2583,-88.2131,3.935,24.58,1111122 
DISL,ioos:station:DISL:KATA:1,2016-10-05T15:30:00Z,30.2583,-88.2131,3.939,24.24,1111122 
DISL,ioos:station:DISL:KATA:1,2016-10-05T16:00:00Z,30.2583,-88.2131,3.942,24.38,1111122 
DISL,ioos:station:DISL:KATA:1,2016-10-05T16:30:00Z,30.2583,-88.2131,3.956,24.66,1111122 
DISL,ioos:station:DISL:KATA:1,2016-10-05T17:00:00Z,30.2583,-88.2131,3.978,24.71,1111122 
DISL,ioos:station:DISL:KATA:1,2016-10-05T17:30:00Z,30.2583,-88.2131,4.007,24.93,1111122 
DISL,ioos:station:DISL:KATA:1,2016-10-05T18:00:00Z,30.2583,-88.2131,4.024,24.99,1111122 
DISL,ioos:station:DISL:KATA:1,2016-10-05T18:30:00Z,30.2583,-88.2131,4.044,25.01,1111122 
DISL,ioos:station:DISL:KATA:1,2016-10-05T19:00:00Z,30.2583,-88.2131,4.064,25.11,1111122 
DISL,ioos:station:DISL:KATA:1,2016-10-05T19:30:00Z,30.2583,-88.2131,4.074,25.26,1111122 
DISL,ioos:station:DISL:KATA:1,2016-10-05T20:00:00Z,30.2583,-88.2131,4.091,25.18,1111122 
DISL,ioos:station:DISL:KATA:1,2016-10-05T20:30:00Z,30.2583,-88.2131,4.107,25.45,1111122 
DISL,ioos:station:DISL:KATA:1,2016-10-05T21:00:00Z,30.2583,-88.2131,4.122,25.62,1111122 
DISL,ioos:station:DISL:KATA:1,2016-10-05T21:30:00Z,30.2583,-88.2131,4.136,25.81,1111122 
DISL,ioos:station:DISL:KATA:1,2016-10-05T22:00:00Z,30.2583,-88.2131,4.154,26.0,1111122 
DISL,ioos:station:DISL:KATA:1,2016-10-05T22:30:00Z,30.2583,-88.2131,4.168,26.1,1111122 
DISL,ioos:station:DISL:KATA:1,2016-10-05T23:00:00Z,30.2583,-88.2131,4.182,26.21,1111122 
DISL,ioos:station:DISL:KATA:1,2016-10-05T23:30:00Z,30.2583,-88.2131,4.199,26.24,1111122 
DISL,ioos:station:DISL:KATA:1,2016-10-06T00:00:00Z,30.2583,-88.2131,4.21,26.33,1111122 
DISL,ioos:station:DISL:KATA:1,2016-10-06T00:30:00Z,30.2583,-88.2131,4.234,25.78,1111122 
DISL,ioos:station:DISL:KATA:1,2016-10-06T01:00:00Z,30.2583,-88.2131,4.254,26.17,1111122 
DISL,ioos:station:DISL:KATA:1,2016-10-06T01:30:00Z,30.2583,-88.2131,4.289,26.19,1111122 
DISL,ioos:station:DISL:KATA:1,2016-10-06T02:00:00Z,30.2583,-88.2131,4.315,26.46,1111122 
DISL,ioos:station:DISL:KATA:1,2016-10-06T02:30:00Z,30.2583,-88.2131,4.324,26.53,1111122 
DISL,ioos:station:DISL:KATA:1,2016-10-06T03:00:00Z,30.2583,-88.2131,4.335,26.36,1111122 
DISL,ioos:station:DISL:KATA:1,2016-10-06T03:30:00Z,30.2583,-88.2131,4.349,26.7,1111122 
DISL,ioos:station:DISL:KATA:1,2016-10-06T04:00:00Z,30.2583,-88.2131,4.361,26.47,1111122 
DISL,ioos:station:DISL:KATA:1,2016-10-06T04:30:00Z,30.2583,-88.2131,4.369,26.56,1111122 
DISL,ioos:station:DISL:KATA:1,2016-10-06T05:00:00Z,30.2583,-88.2131,4.371,26.59,1111122 
DISL,ioos:station:DISL:KATA:1,2016-10-06T05:30:00Z,30.2583,-88.2131,4.37,26.8,1111122 
DISL,ioos:station:DISL:KATA:1,2016-10-06T06:00:00Z,30.2583,-88.2131,4.37,26.58,1111122 
DISL,ioos:station:DISL:KATA:1,2016-10-06T06:30:00Z,30.2583,-88.2131,4.358,26.67,1111122 
DISL,ioos:station:DISL:KATA:1,2016-10-06T07:00:00Z,30.2583,-88.2131,4.355,26.66,1111122 
DISL,ioos:station:DISL:KATA:1,2016-10-06T07:30:00Z,30.2583,-88.2131,4.346,26.49,1111122 
DISL,ioos:station:DISL:KATA:1,2016-10-06T08:00:00Z,30.2583,-88.2131,4.341,26.42,1111122 
DISL,ioos:station:DISL:KATA:1,2016-10-06T08:30:00Z,30.2583,-88.2131,4.335,26.37,1111122 
DISL,ioos:station:DISL:KATA:1,2016-10-06T09:00:00Z,30.2583,-88.2131,4.316,26.2,1111122 
DISL,ioos:station:DISL:KATA:1,2016-10-06T09:30:00Z,30.2583,-88.2131,4.303,26.19,1111122 
DISL,ioos:station:DISL:KATA:1,2016-10-06T10:00:00Z,30.2583,-88.2131,4.279,26.22,1111122 
DISL,ioos:station:DISL:KATA:1,2016-10-06T10:30:00Z,30.2583,-88.2131,4.252,25.11,1111122 
DISL,ioos:station:DISL:KATA:1,2016-10-06T11:00:00Z,30.2583,-88.2131,4.218,24.47,1111122 
DISL,ioos:station:DISL:KATA:1,2016-10-06T11:30:00Z,30.2583,-88.2131,4.176,24.22,1111122 
DISL,ioos:station:DISL:KATA:1,2016-10-06T12:00:00Z,30.2583,-88.2131,4.15,24.25,1111122 
DISL,ioos:station:DISL:KATA:1,2016-10-06T12:30:00Z,30.2583,-88.2131,4.117,24.06,1111122 
DISL,ioos:station:DISL:KATA:1,2016-10-06T13:00:00Z,30.2583,-88.2131,4.093,24.12,1111122 
DISL,ioos:station:DISL:KATA:1,2016-10-06T13:30:00Z,30.2583,-88.2131,4.068,24.2,1111122 
DISL,ioos:station:DISL:KATA:1,2016-10-06T14:00:00Z,30.2583,-88.2131,4.066,24.11,1111122 